SCP
0 0 0 -0 -0 -0 -0 0 0 0 0 0 0 0 0 0 0 0 0 0 0 0 0 0 0 0 0 0 0 0 0 0 0 0 0 0 0 0 0 0 0 0 0
0 0 0 -0 -0 -0 -0 0 0 0 0 0 0 0 0 0 0 0 0 0 0 0 0 0 0 0 0 0 0 0 0 0 0 0 0 0 0 0 0 0 0 0 0
0 -0 -0 -0 -0 -0 -0 0 0 0 0 0 0 0 0 0 0 0 0 0 0 0 0 0 0 0 0 0 0 0 0 0 0 0 0 1 1 0 0 0 0 0 0
-0 -0 0 0 -0 -0 0 0 0 0 0 0 0 0 0 0 0 0 0 0 0 0 0 0 0 0 0 0 0 0 0 0 0 0 1 0 0 0 0 0 0 0 0
0 0 0 0 0 0 0 0 0 0 0 0 0 0 0 0 0 0 0 0 0 0 0 0 0 0 0 0 0 0 0 0 0 0 0 1 0 0 0 0 0 0 0
0 0 0 0 0 0 0 0 0 0 0 0 0 0 0 0 0 0 0 0 0 0 0 0 0 0 0 0 0 0 0 0 0 0 0 0 1 0 0 0 0 0 0
0 0 0 0 0 0 0 0 0 0 0 0 0 0 0 0 0 0 0 0 0 0 0 0 0 0 0 0 0 0 0 0 0 0 0 0 0 0 0 0 0 0 0
0 0 0 0 0 0 0 0 0 0 0 0 0 0 0 0 0 0 0 0 0 0 0 0 0 0 0 0 0 0 0 0 0 0 0 0 0 0 0 0 0 0 0
0 0 0 0 0 0 0 0 0 0 0 0 0 0 0 0 0 0 0 0 0 0 0 0 0 0 0 0 0 0 0 0 0 0 0 0 0 0 0 0 0 0 0
0 0 0 0 0 0 0 0 0 0 0 0 0 0 0 0 0 0 0 0 0 0 0 0 0 0 0 0 0 0 0 0 0 0 0 0 0 0 0 0 0 0 0
0 0 0 0 0 0 0 0 0 0 0 0 0 0 0 0 0 0 0 0 0 -0 -0 -0 -0 -0 -0 -0 -0 -0 0 0 0 0 0 0 0 0 0 0 0 0 0
0 0 0 0 0 0 0 0 0 0 0 0 0 0 0 0 -0 -0 -0 0 -0 -0 -0 -0 -0 -0 -0 -0 -0 -0 0 0 0 0 0 0 0 0 0 0 0 0 0
0 0 0 0 0 0 0 0 0 0 0 0 0 0 -0 -0 -0 -0 -0 0 -0 -0 -0 -0 -0 -0 -0 -0 0 0 0 0 0 0 0 0 0 0 0 0 0 0 0
0 0 0 0 0 0 0 0 0 -0 0 0 -0 -0 0 0 -0 0 0 0 0 0 0 0 0 0 0 -0 -0 -0 0 0 0 0 0 0 0 0 0 0 0 0 0
0 0 0 0 0 0 -0 -0 -0 0 0 0 0 -0 -0 -0 -0 -0 -0 -0 -0 -0 0 0 0 0 -0 -0 -0 0 0 0 0 0 0 0 0 -0 0 0 0 0 0
0 0 0 0 -0 -0 -0 0 0 0 0 -0 -0 -0 -0 -0 -0 -0 -0 -0 -0 -0 0 -0 -0 0 -0 -0 -0 0 0 0 0 0 0 0 0 0 -0 -0 -0 -0 0
0 0 0 0 0 0 0 0 0 0 -0 -0 -0 -0 -0 -0 -0 -0 0 0 -0 0 -0 0 0 0 -0 0 -0 0 0 0 0 0 0 0 0 0 0 -0 -0 -0 -0
0 0 0 0 0 0 0 0 0 -0 -0 -0 -0 -0 -0 0 0 0 0 -0 -0 -0 -0 0 -0 0 0 -0 0 0 0 0 0 0 0 0 0 0 0 0 0 0 -0
0 0 0 0 0 0 0 -0 -0 -0 -0 -0 -0 0 0 0 0 0 0 0 0 0 0 0 0 0 0 0 0 0 0 0 0 0 0 -0 -0 -0 -0 -0 0 0 0
0 0 0 0 0 0 -0 -0 -0 -0 -0 0 0 0 0 0 0 0 0 0 0 0 0 0 0 -0 0 -0 -0 -0 0 0 0 0 -0 -0 0 -0 -0 0 0 0 0
0 0 0 0 0 -0 -0 -0 -0 0 0 0 0 0 0 0 0 0 0 0 0 0 0 0 0 0 0 0 0 -0 0 0 0 0 0 0 -0 -0 -0 -0 -0 -0 -0
0 0 0 0 -0 -0 0 0 0 0 0 0 0 0 0 0 0 0 0 0 0 0 0 0 0 0 0 0 0 0 0 -0 0 0 0 0 -0 -0 -0 -0 -0 -0 -0
0 0 0 -0 -0 0 0 0 0 0 0 0 0 0 0 0 0 0 0 0 0 0 0 0 0 0 0 0 0 0 0 0 0 0 -0 -0 -0 -0 -0 -0 -0 -0 -0
0 -0 -0 -0 -0 0 0 0 0 0 0 0 0 0 0 0 0 0 0 0 0 0 0 0 0 0 0 0 0 0 0 0 0 0 -0 -0 -0 -0 0 0 0 -0 -0
0 -0 -0 -0 0 0 0 0 0 0 0 0 0 0 0 0 0 0 0 0 0 0 0 0 0 0 0 0 0 0 0 0 -0 0 0 -0 -0 -0 -0 -0 0 0 0
-0 -0 -0 -0 0 0 0 0 0 0 0 0 0 0 0 0 0 0 0 0 0 0 0 0 0 0 -0 0 0 0 -0 -0 0 0 -0 -0 -0 0 0 0 0 0 0
Wind_Speed_500mb
40 45 50 57 60 64 67 52 48 41 36 50 53 58 64 65 58 53 55 53 56 59 63 57 50 49 51 52 49 48 48 48 41 44 56 61 66 63 57 57 56 60 75
45 48 50 57 60 61 54 47 46 38 43 51 56 55 57 62 63 61 57 60 61 64 67 56 53 52 54 52 51 46 47 49 40 38 42 35 46 58 57 58 58 57 59
40 43 48 52 54 53 57 57 46 44 43 47 56 52 56 60 64 59 61 62 63 62 63 59 57 58 57 49 50 48 45 50 47 38 34 19 23 31 46 56 57 62 70
47 52 55 52 48 49 47 45 43 40 43 48 52 52 58 66 66 65 61 60 59 64 62 61 58 61 61 55 54 51 47 45 50 41 43 44 47 18 17 37 47 54 63
55 57 57 55 55 57 54 57 48 45 46 50 52 56 65 70 71 60 60 61 64 67 59 57 58 60 66 60 60 60 55 55 58 54 49 43 44 47 44 24 41 43 45
64 60 60 62 63 59 59 61 47 56 59 58 57 54 52 58 68 69 67 71 70 66 57 50 53 60 65 64 66 68 53 55 58 65 58 54 42 35 50 39 37 43 44
71 72 71 81 72 74 57 44 53 64 68 67 66 58 55 58 63 67 70 71 67 62 61 57 55 60 67 70 67 63 51 47 55 58 61 62 48 44 43 54 50 42 39
76 76 70 82 66 62 61 62 65 71 75 67 65 60 67 74 80 71 69 69 66 65 68 58 60 64 65 65 60 60 52 42 46 48 56 63 63 41 40 50 55 36 31
77 75 76 83 64 73 71 68 69 73 70 64 64 76 78 82 82 74 70 71 69 69 65 65 65 63 59 62 62 64 49 39 48 53 50 51 70 45 40 44 61 58 33
82 77 77 78 78 79 76 75 77 77 73 79 82 80 81 82 82 77 74 77 72 69 65 70 72 69 62 66 72 67 52 53 56 57 56 53 53 57 39 44 45 66 66
79 86 83 84 82 84 82 86 86 84 88 91 85 85 86 86 86 77 85 77 75 71 67 68 71 67 68 77 69 68 61 60 52 51 54 52 47 46 47 42 43 63 61
84 81 77 84 86 90 86 88 91 85 92 89 87 89 92 88 89 86 82 79 75 64 66 64 65 77 89 82 74 61 57 44 46 48 44 51 49 50 45 45 46 65 74
84 75 82 83 87 91 90 88 91 86 90 87 90 91 85 90 85 84 77 77 69 71 70 78 91 88 78 79 65 54 48 47 49 49 50 49 45 47 50 57 53 70 75
74 80 86 89 91 92 91 91 90 93 92 92 91 88 83 83 80 77 76 83 75 75 80 80 77 73 66 54 52 50 52 57 50 49 47 43 46 44 52 61 73 80 87
82 88 91 95 98 98 98 96 97 95 93 91 89 80 84 83 82 71 71 72 73 72 68 65 58 57 54 54 52 52 44 43 37 42 50 43 47 53 66 72 83 87 96
92 95 98 101 99 98 99 101 96 97 95 85 84 88 84 79 74 73 74 71 69 67 65 61 57 57 48 45 48 43 34 43 39 42 40 44 54 61 75 72 75 76 96
95 96 99 98 98 102 101 99 101 96 88 91 83 79 73 75 74 71 64 65 63 65 52 58 50 49 48 41 17 24 36 30 35 37 51 62 73 73 73 74 74 86 87
99 101 99 104 105 107 102 101 96 97 91 85 79 76 68 69 63 63 59 58 55 43 47 45 45 36 16 25 11 37 55 66 70 65 74 82 85 88 94 91 78 77 78
95 93 98 101 102 102 110 107 95 88 81 75 70 65 62 59 59 58 52 49 36 39 47 44 2 29 46 48 73 72 89 94 94 89 78 72 83 82 79 79 78 80 76
92 99 103 99 102 114 108 98 88 74 71 67 63 60 55 51 53 45 50 43 32 50 62 90 90 85 92 79 58 54 81 105 102 99 92 84 87 76 72 86 93 93 86
93 100 99 98 102 108 100 89 77 74 64 63 55 52 49 51 44 42 56 47 64 79 94 97 95 92 88 82 92 103 113 113 113 104 95 85 83 84 81 77 74 76 69
100 100 103 109 109 104 93 77 70 69 63 56 54 50 52 40 38 48 45 57 75 89 99 105 104 99 101 106 103 98 101 99 105 102 94 89 84 78 70 67 65 63 62
95 95 104 105 110 99 80 76 64 63 59 56 54 56 47 44 35 37 40 57 77 86 94 106 106 110 108 103 101 104 105 103 106 97 90 82 78 75 72 67 65 64 66
96 97 106 107 108 93 78 64 59 60 56 56 54 45 40 42 43 36 41 61 74 81 89 98 98 95 102 109 105 101 100 98 98 91 85 82 81 80 79 74 71 71 70
93 97 97 101 96 86 77 65 61 56 57 50 43 48 55 44 46 43 39 50 68 82 92 94 97 99 97 90 88 88 90 89 87 88 89 90 90 89 86 82 77 74 72
93 99 97 97 86 80 72 65 58 57 50 37 38 39 47 46 49 54 64 60 68 74 78 81 82 85 87 81 81 81 81 82 82 92 96 93 87 85 81 80 78 74 71
Wind_Direction_500mb
12 2 355 350 345 346 340 335 335 337 317 325 328 328 330 326 321 322 330 325 327 328 329 319 315 314 306 296 288 287 283 276 270 280 268 258 252 251 249 251 249 239 234
358 353 350 346 342 339 345 342 341 332 321 324 322 317 320 318 318 315 315 321 325 326 326 318 322 322 317 305 292 284 291 275 273 278 277 275 259 249 246 243 244 244 239
356 352 345 342 339 339 343 343 332 333 332 333 325 318 314 318 312 316 314 311 316 319 320 316 321 323 323 310 308 289 282 289 275 264 261 263 242 240 237 237 234 238 240
355 349 343 337 334 336 337 336 331 328 331 329 325 321 310 313 315 315 312 311 311 311 311 310 311 316 319 315 314 300 275 273 279 274 262 261 257 259 222 231 232 231 242
352 352 348 341 336 334 331 330 321 321 323 323 322 315 310 311 312 316 315 313 309 309 305 304 305 308 313 312 312 310 279 268 269 270 269 271 260 256 240 227 219 217 226
348 348 349 346 339 333 325 322 321 325 327 326 327 319 313 314 314 315 312 314 312 313 303 304 304 307 307 308 309 310 287 271 264 261 263 268 270 249 233 230 217 212 223
340 341 340 344 339 333 324 321 324 325 327 326 324 317 314 316 314 313 312 314 310 309 311 308 305 304 304 304 304 303 288 278 268 260 257 254 259 253 247 232 225 220 215
343 341 333 332 341 347 339 333 328 326 327 320 317 314 313 315 317 313 309 309 308 308 309 310 310 304 300 299 300 300 284 279 267 268 254 250 249 259 245 238 219 184 183
333 335 326 327 335 334 332 330 329 328 327 321 318 318 316 314 317 313 311 310 307 307 305 306 309 307 298 299 297 301 282 266 265 268 266 257 245 246 248 241 236 223 179
326 327 331 334 334 332 333 332 329 327 324 320 318 318 316 316 317 316 313 310 305 306 302 303 305 305 304 304 297 294 280 262 263 266 265 254 248 242 242 245 245 230 217
325 323 328 331 329 332 330 328 326 326 324 323 322 318 317 317 316 312 311 308 308 305 301 301 301 299 301 305 296 288 282 271 268 258 256 249 248 244 241 245 242 226 206
320 319 321 325 324 326 326 323 325 321 323 320 318 315 313 315 314 309 309 309 306 301 299 300 296 296 298 297 296 284 278 259 265 250 249 245 244 243 235 240 237 223 211
319 321 321 322 320 323 322 319 321 318 319 317 315 312 310 309 308 308 307 306 299 301 296 294 296 296 292 288 283 276 258 262 269 253 242 241 241 235 228 232 235 213 196
321 322 322 322 321 321 319 319 319 318 317 314 315 312 309 308 303 303 299 299 302 299 298 298 298 292 289 281 270 270 269 267 259 241 232 233 236 223 223 225 216 198 182
323 323 322 322 321 321 321 320 317 317 316 315 314 311 309 308 314 317 312 311 306 306 303 301 298 293 289 282 273 266 256 245 239 225 223 229 227 216 224 211 196 189 174
322 323 322 320 319 319 319 318 319 318 318 316 313 314 314 319 317 318 315 315 313 312 311 304 298 293 278 273 267 254 249 234 230 251 230 205 215 221 216 214 210 203 182
320 321 321 321 321 321 320 319 319 319 317 317 316 319 317 323 322 324 322 321 317 317 313 297 286 284 267 265 209 228 238 229 231 192 171 157 151 151 137 133 135 150 158
323 323 324 323 323 322 321 320 319 321 325 325 322 322 328 327 327 329 326 326 327 321 316 306 276 264 208 162 151 131 150 142 146 155 152 140 134 134 136 140 144 140 154
323 324 324 324 323 323 325 327 326 328 326 329 329 332 339 335 332 332 339 348 349 357 4 23 226 181 135 120 133 126 126 123 115 127 135 136 137 138 136 137 131 123 120
329 328 328 327 326 331 335 332 334 338 340 340 341 340 338 335 338 354 0 22 48 49 55 85 95 109 119 142 142 138 123 121 119 117 117 122 126 138 144 135 133 125 125
330 332 333 332 333 335 339 343 345 350 355 354 349 345 346 349 5 23 50 73 84 78 80 85 93 97 104 115 127 131 127 118 114 115 113 121 126 126 125 125 121 117 125
335 337 335 338 341 347 351 354 353 356 0 355 355 1 5 13 44 61 77 82 82 84 83 88 87 95 104 117 120 127 122 121 115 111 112 115 118 117 118 115 115 120 124
336 337 340 340 349 356 3 2 359 359 359 359 8 22 49 38 62 64 76 89 87 86 87 89 87 90 93 96 109 112 112 112 111 112 114 117 116 115 111 112 118 123 123
339 339 343 345 349 359 9 13 4 1 7 12 28 42 55 61 72 73 73 91 91 90 93 94 93 93 96 103 111 113 113 113 113 114 112 114 115 114 115 118 119 117 117
341 343 344 348 353 1 11 13 10 9 14 28 34 65 74 65 76 72 67 95 97 105 106 105 107 110 109 111 116 116 115 116 117 118 117 114 112 113 114 113 114 114 115
343 346 350 356 358 5 8 13 12 14 22 41 43 53 77 72 78 84 84 86 99 102 105 107 108 107 110 114 113 113 115 116 120 114 111 112 113 114 116 116 115 112 110
Wind_Speed_850mb
40 45 50 57 60 64 67 52 48 41 36 50 53 58 64 65 58 53 55 53 56 59 63 57 50 49 51 52 49 48 48 48 41 44 56 61 66 63 57 57 56 60 75
45 48 50 57 60 61 54 47 46 38 43 51 56 55 57 62 63 61 57 60 61 64 67 56 53 52 54 52 51 46 47 49 40 38 42 35 46 58 57 58 58 57 59
40 43 48 52 54 53 57 57 46 44 43 47 56 52 56 60 64 59 61 62 63 62 63 59 57 58 57 49 50 48 45 50 47 38 34 19 23 31 46 56 57 62 70
47 52 55 52 48 49 47 45 43 40 43 48 52 52 58 66 66 65 61 60 59 64 62 61 58 61 61 55 54 51 47 45 50 41 43 44 47 18 17 37 47 54 63
55 57 57 55 55 57 54 57 48 45 46 50 52 56 65 70 71 60 60 61 64 67 59 57 58 60 66 60 60 60 55 55 58 54 49 43 44 47 44 24 41 43 45
64 60 60 62 63 59 59 61 47 56 59 58 57 54 52 58 68 69 67 71 70 66 57 50 53 60 65 64 66 68 53 55 58 65 58 54 42 35 50 39 37 43 44
71 72 71 81 72 74 57 44 53 64 68 67 66 58 55 58 63 67 70 71 67 62 61 57 55 60 67 70 67 63 51 47 55 58 61 62 48 44 43 54 50 42 39
76 76 70 82 66 62 61 62 65 71 75 67 65 60 67 74 80 71 69 69 66 65 68 58 60 64 65 65 60 60 52 42 46 48 56 63 63 41 40 50 55 36 31
77 75 76 83 64 73 71 68 69 73 70 64 64 76 78 82 82 74 70 71 69 69 65 65 65 63 59 62 62 64 49 39 48 53 50 51 70 45 40 44 61 58 33
82 77 77 78 78 79 76 75 77 77 73 79 82 80 81 82 82 77 74 77 72 69 65 70 72 69 62 66 72 67 52 53 56 57 56 53 53 57 39 44 45 66 66
79 86 83 84 82 84 82 86 86 84 88 91 85 85 86 86 86 77 85 77 75 71 67 68 71 67 68 77 69 68 61 60 52 51 54 52 47 46 47 42 43 63 61
84 81 77 84 86 90 86 88 91 85 92 89 87 89 92 88 89 86 82 79 75 64 66 64 65 77 89 82 74 61 57 44 46 48 44 51 49 50 45 45 46 65 74
84 75 82 83 87 91 90 88 91 86 90 87 90 91 85 90 85 84 77 77 69 71 70 78 91 88 78 79 65 54 48 47 49 49 50 49 45 47 50 57 53 70 75
74 80 86 89 91 92 91 91 90 93 92 92 91 88 83 83 80 77 76 83 75 75 80 80 77 73 66 54 52 50 52 57 50 49 47 43 46 44 52 61 73 80 87
82 88 91 95 98 98 98 96 97 95 93 91 89 80 84 83 82 71 71 72 73 72 68 65 58 57 54 54 52 52 44 43 37 42 50 43 47 53 66 72 83 87 96
92 95 98 101 99 98 99 101 96 97 95 85 84 88 84 79 74 73 74 71 69 67 65 61 57 57 48 45 48 43 34 43 39 42 40 44 54 61 75 72 75 76 96
95 96 99 98 98 102 101 99 101 96 88 91 83 79 73 75 74 71 64 65 63 65 52 58 50 49 48 41 17 24 36 30 35 37 51 62 73 73 73 74 74 86 87
99 101 99 104 105 107 102 101 96 97 91 85 79 76 68 69 63 63 59 58 55 43 47 45 45 36 16 25 11 37 55 66 70 65 74 82 85 88 94 91 78 77 78
95 93 98 101 102 102 110 107 95 88 81 75 70 65 62 59 59 58 52 49 36 39 47 44 2 29 46 48 73 72 89 94 94 89 78 72 83 82 79 79 78 80 76
92 99 103 99 102 114 108 98 88 74 71 67 63 60 55 51 53 45 50 43 32 50 62 90 90 85 92 79 58 54 81 105 102 99 92 84 87 76 72 86 93 93 86
93 100 99 98 102 108 100 89 77 74 64 63 55 52 49 51 44 42 56 47 64 79 94 97 95 92 88 82 92 103 113 113 113 104 95 85 83 84 81 77 74 76 69
100 100 103 109 109 104 93 77 70 69 63 56 54 50 52 40 38 48 45 57 75 89 99 105 104 99 101 106 103 98 101 99 105 102 94 89 84 78 70 67 65 63 62
95 95 104 105 110 99 80 76 64 63 59 56 54 56 47 44 35 37 40 57 77 86 94 106 106 110 108 103 101 104 105 103 106 97 90 82 78 75 72 67 65 64 66
96 97 106 107 108 93 78 64 59 60 56 56 54 45 40 42 43 36 41 61 74 81 89 98 98 95 102 109 105 101 100 98 98 91 85 82 81 80 79 74 71 71 70
93 97 97 101 96 86 77 65 61 56 57 50 43 48 55 44 46 43 39 50 68 82 92 94 97 99 97 90 88 88 90 89 87 88 89 90 90 89 86 82 77 74 72
93 99 97 97 86 80 72 65 58 57 50 37 38 39 47 46 49 54 64 60 68 74 78 81 82 85 87 81 81 81 81 82 82 92 96 93 87 85 81 80 78 74 71
Wind_Direction_850mb
12 2 355 350 345 346 340 335 335 337 317 325 328 328 330 326 321 322 330 325 327 328 329 319 315 314 306 296 288 287 283 276 270 280 268 258 252 251 249 251 249 239 234
358 353 350 346 342 339 345 342 341 332 321 324 322 317 320 318 318 315 315 321 325 326 326 318 322 322 317 305 292 284 291 275 273 278 277 275 259 249 246 243 244 244 239
356 352 345 342 339 339 343 343 332 333 332 333 325 318 314 318 312 316 314 311 316 319 320 316 321 323 323 310 308 289 282 289 275 264 261 263 242 240 237 237 234 238 240
355 349 343 337 334 336 337 336 331 328 331 329 325 321 310 313 315 315 312 311 311 311 311 310 311 316 319 315 314 300 275 273 279 274 262 261 257 259 222 231 232 231 242
352 352 348 341 336 334 331 330 321 321 323 323 322 315 310 311 312 316 315 313 309 309 305 304 305 308 313 312 312 310 279 268 269 270 269 271 260 256 240 227 219 217 226
348 348 349 346 339 333 325 322 321 325 327 326 327 319 313 314 314 315 312 314 312 313 303 304 304 307 307 308 309 310 287 271 264 261 263 268 270 249 233 230 217 212 223
340 341 340 344 339 333 324 321 324 325 327 326 324 317 314 316 314 313 312 314 310 309 311 308 305 304 304 304 304 303 288 278 268 260 257 254 259 253 247 232 225 220 215
343 341 333 332 341 347 339 333 328 326 327 320 317 314 313 315 317 313 309 309 308 308 309 310 310 304 300 299 300 300 284 279 267 268 254 250 249 259 245 238 219 184 183
333 335 326 327 335 334 332 330 329 328 327 321 318 318 316 314 317 313 311 310 307 307 305 306 309 307 298 299 297 301 282 266 265 268 266 257 245 246 248 241 236 223 179
326 327 331 334 334 332 333 332 329 327 324 320 318 318 316 316 317 316 313 310 305 306 302 303 305 305 304 304 297 294 280 262 263 266 265 254 248 242 242 245 245 230 217
325 323 328 331 329 332 330 328 326 326 324 323 322 318 317 317 316 312 311 308 308 305 301 301 301 299 301 305 296 288 282 271 268 258 256 249 248 244 241 245 242 226 206
320 319 321 325 324 326 326 323 325 321 323 320 318 315 313 315 314 309 309 309 306 301 299 300 296 296 298 297 296 284 278 259 265 250 249 245 244 243 235 240 237 223 211
319 321 321 322 320 323 322 319 321 318 319 317 315 312 310 309 308 308 307 306 299 301 296 294 296 296 292 288 283 276 258 262 269 253 242 241 241 235 228 232 235 213 196
321 322 322 322 321 321 319 319 319 318 317 314 315 312 309 308 303 303 299 299 302 299 298 298 298 292 289 281 270 270 269 267 259 241 232 233 236 223 223 225 216 198 182
323 323 322 322 321 321 321 320 317 317 316 315 314 311 309 308 314 317 312 311 306 306 303 301 298 293 289 282 273 266 256 245 239 225 223 229 227 216 224 211 196 189 174
322 323 322 320 319 319 319 318 319 318 318 316 313 314 314 319 317 318 315 315 313 312 311 304 298 293 278 273 267 254 249 234 230 251 230 205 215 221 216 214 210 203 182
320 321 321 321 321 321 320 319 319 319 317 317 316 319 317 323 322 324 322 321 317 317 313 297 286 284 267 265 209 228 238 229 231 192 171 157 151 151 137 133 135 150 158
323 323 324 323 323 322 321 320 319 321 325 325 322 322 328 327 327 329 326 326 327 321 316 306 276 264 208 162 151 131 150 142 146 155 152 140 134 134 136 140 144 140 154
323 324 324 324 323 323 325 327 326 328 326 329 329 332 339 335 332 332 339 348 349 357 4 23 226 181 135 120 133 126 126 123 115 127 135 136 137 138 136 137 131 123 120
329 328 328 327 326 331 335 332 334 338 340 340 341 340 338 335 338 354 0 22 48 49 55 85 95 109 119 142 142 138 123 121 119 117 117 122 126 138 144 135 133 125 125
330 332 333 332 333 335 339 343 345 350 355 354 349 345 346 349 5 23 50 73 84 78 80 85 93 97 104 115 127 131 127 118 114 115 113 121 126 126 125 125 121 117 125
335 337 335 338 341 347 351 354 353 356 0 355 355 1 5 13 44 61 77 82 82 84 83 88 87 95 104 117 120 127 122 121 115 111 112 115 118 117 118 115 115 120 124
336 337 340 340 349 356 3 2 359 359 359 359 8 22 49 38 62 64 76 89 87 86 87 89 87 90 93 96 109 112 112 112 111 112 114 117 116 115 111 112 118 123 123
339 339 343 345 349 359 9 13 4 1 7 12 28 42 55 61 72 73 73 91 91 90 93 94 93 93 96 103 111 113 113 113 113 114 112 114 115 114 115 118 119 117 117
341 343 344 348 353 1 11 13 10 9 14 28 34 65 74 65 76 72 67 95 97 105 106 105 107 110 109 111 116 116 115 116 117 118 117 114 112 113 114 113 114 114 115
343 346 350 356 358 5 8 13 12 14 22 41 43 53 77 72 78 84 84 86 99 102 105 107 108 107 110 114 113 113 115 116 120 114 111 112 113 114 116 116 115 112 110